CEB740 RPLL-OERK

Flight info

Callsign CEB740
Flight time N/A
Altitude 32000
Route SIRCA2R SIRCA L628 IBOBI/N0497F280 L628 ARESI/K0924F320 L628 PCA G474 ANINA/N0500F320 G474 VEMKO M633 UPLAT/N0493F340 M633 TANEK L301 NUSRU/N0492F360 L301 KARKU W103 DOGET N571 PARAR/N0484F380 M628 TULBU G652 TOKRA DCT 21N053E 21N051E DCT AMBAG M321 NAGUB
Aircraft A339/H-SADE1E2E3GHIJ3J5M1P2RWXY/LB2D1

Departure

Time 2026-04-30 14:58
Airport Ninoy Aquino International Airport (RPLL)

Arrival

Time N/A
Airport King Khalid International Airport (OERK)
Time Latitude Longitude Altitude Speed Heading
2026-04-30 14:18 14.51701 121.01465 90 ft 0 kts 44°
2026-04-30 14:35 14.51700 121.01465 90 ft 0 kts 44°
2026-04-30 14:36 14.51694 121.01459 90 ft 2 kts 44°
2026-04-30 14:36 14.51683 121.01448 90 ft 2 kts 44°
2026-04-30 14:37 14.51673 121.01437 90 ft 2 kts 44°
2026-04-30 14:37 14.51662 121.01426 90 ft 2 kts 44°
2026-04-30 14:37 14.51651 121.01415 90 ft 2 kts 39°
2026-04-30 14:37 14.51637 121.01410 90 ft 2 kts 354°
2026-04-30 14:38 14.51623 121.01414 90 ft 2 kts 318°
2026-04-30 14:38 14.51613 121.01426 90 ft 2 kts 310°
2026-04-30 14:38 14.51603 121.01437 90 ft 2 kts 315°
2026-04-30 14:38 14.51592 121.01449 90 ft 2 kts 315°
2026-04-30 14:39 14.51582 121.01459 90 ft 2 kts 314°
2026-04-30 14:39 14.51574 121.01467 90 ft 0 kts 314°
2026-04-30 14:42 14.51579 121.01462 90 ft 1 kts 314°
2026-04-30 14:42 14.51592 121.01449 90 ft 2 kts 314°
2026-04-30 14:43 14.51612 121.01427 90 ft 6 kts 314°
2026-04-30 14:43 14.51650 121.01388 90 ft 8 kts 314°
2026-04-30 14:43 14.51672 121.01350 90 ft 7 kts 270°
2026-04-30 14:43 14.51654 121.01310 90 ft 5 kts 217°
2026-04-30 14:44 14.51622 121.01318 90 ft 5 kts 143°
2026-04-30 14:44 14.51590 121.01347 90 ft 6 kts 136°
2026-04-30 14:44 14.51555 121.01382 90 ft 7 kts 135°
2026-04-30 14:44 14.51514 121.01424 90 ft 8 kts 134°
2026-04-30 14:45 14.51470 121.01471 90 ft 9 kts 134°
2026-04-30 14:45 14.51422 121.01521 90 ft 9 kts 135°
2026-04-30 14:45 14.51386 121.01535 90 ft 8 kts 187°
2026-04-30 14:46 14.51337 121.01496 90 ft 6 kts 229°
2026-04-30 14:46 14.51303 121.01456 90 ft 7 kts 229°
2026-04-30 14:46 14.51258 121.01426 90 ft 7 kts 185°
2026-04-30 14:47 14.51220 121.01449 90 ft 6 kts 136°
2026-04-30 14:47 14.51182 121.01486 90 ft 8 kts 136°
2026-04-30 14:47 14.51140 121.01530 90 ft 8 kts 134°
2026-04-30 14:47 14.51095 121.01576 90 ft 9 kts 134°
2026-04-30 14:48 14.51047 121.01627 90 ft 10 kts 135°
2026-04-30 14:48 14.50995 121.01678 90 ft 8 kts 148°
2026-04-30 14:48 14.50970 121.01688 90 ft 2 kts 143°
2026-04-30 14:48 14.50964 121.01696 90 ft 2 kts 129°
2026-04-30 14:49 14.50950 121.01714 90 ft 4 kts 125°
2026-04-30 14:49 14.50932 121.01736 90 ft 4 kts 148°
2026-04-30 14:49 14.50910 121.01730 90 ft 4 kts 211°
2026-04-30 14:49 14.50886 121.01707 90 ft 5 kts 230°
2026-04-30 14:50 14.50843 121.01632 90 ft 7 kts 240°
2026-04-30 14:50 14.50813 121.01578 90 ft 9 kts 240°
2026-04-30 14:51 14.50741 121.01448 90 ft 10 kts 240°
2026-04-30 14:51 14.50708 121.01389 90 ft 11 kts 240°
2026-04-30 14:51 14.50625 121.01240 90 ft 12 kts 240°
2026-04-30 14:52 14.50580 121.01160 90 ft 12 kts 240°
2026-04-30 14:52 14.50491 121.00999 90 ft 13 kts 240°
2026-04-30 14:52 14.50444 121.00913 90 ft 13 kts 240°
2026-04-30 14:53 14.50346 121.00738 90 ft 14 kts 240°
2026-04-30 14:53 14.50297 121.00649 90 ft 14 kts 240°
2026-04-30 14:54 14.50196 121.00468 90 ft 14 kts 240°
2026-04-30 14:54 14.50098 121.00291 90 ft 16 kts 240°
2026-04-30 14:55 14.49989 121.00095 90 ft 16 kts 241°
2026-04-30 14:55 14.49944 121.00014 90 ft 10 kts 240°
2026-04-30 14:55 14.49837 120.99993 90 ft 10 kts 150°
2026-04-30 14:56 14.49819 121.00069 90 ft 6 kts 65°
2026-04-30 14:56 14.50171 121.00710 90 ft 101 kts 60°
2026-04-30 14:57 14.50601 121.01484 90 ft 143 kts 59°
2026-04-30 14:57 14.51730 121.03489 548 ft 165 kts 59°
2026-04-30 14:58 14.52804 121.05409 1430 ft 154 kts 59°
2026-04-30 14:58 14.53348 121.06381 1721 ft 159 kts 61°
2026-04-30 14:58 14.54469 121.08442 2063 ft 176 kts 61°
2026-04-30 14:59 14.55778 121.10820 2457 ft 196 kts 61°
2026-04-30 15:00 14.59068 121.13509 3073 ft 238 kts
2026-04-30 15:00 14.62545 121.13493 3620 ft 262 kts
2026-04-30 15:01 14.66152 121.13497 4666 ft 265 kts
2026-04-30 15:01 14.67344 121.13433 5004 ft 268 kts 351°
2026-04-30 15:01 14.70185 121.10214 6182 ft 288 kts 276°
2026-04-30 15:02 14.70176 121.08155 6643 ft 291 kts 269°
2026-04-30 15:02 14.70105 121.06013 7112 ft 295 kts 270°
2026-04-30 15:03 14.69854 120.99666 8438 ft 303 kts 259°
2026-04-30 15:03 14.68583 120.95598 9227 ft 307 kts 248°
2026-04-30 15:04 14.67033 120.91436 10123 ft 311 kts 249°
2026-04-30 15:04 14.64687 120.84961 10756 ft 341 kts 249°
2026-04-30 15:05 14.62069 120.77686 11340 ft 373 kts 249°
2026-04-30 15:06 14.60218 120.72549 11674 ft 393 kts 249°
2026-04-30 15:06 14.58263 120.67131 12385 ft 402 kts 249°
2026-04-30 15:07 14.56663 120.62701 13054 ft 405 kts 249°
2026-04-30 15:07 14.54851 120.57682 13788 ft 409 kts 249°
2026-04-30 15:08 14.52799 120.52003 14601 ft 414 kts 249°
2026-04-30 15:08 14.49782 120.43669 15750 ft 421 kts 249°
2026-04-30 15:09 14.47664 120.37824 16556 ft 425 kts 249°
2026-04-30 15:09 14.46063 120.31839 17317 ft 430 kts 260°
2026-04-30 15:10 14.45484 120.25716 18055 ft 433 kts 265°
2026-04-30 15:11 14.44632 120.13088 19487 ft 441 kts 265°
2026-04-30 15:11 14.44176 120.06643 20167 ft 445 kts 265°
2026-04-30 15:12 14.43482 119.96973 21121 ft 450 kts 265°
2026-04-30 15:13 14.43066 119.91177 21674 ft 453 kts 265°
2026-04-30 15:14 14.42166 119.78743 22828 ft 457 kts 265°
2026-04-30 15:14 14.41512 119.69736 23673 ft 459 kts 265°
2026-04-30 15:16 14.40288 119.53087 25022 ft 466 kts 265°
2026-04-30 15:17 14.39318 119.39918 26019 ft 471 kts 265°
2026-04-30 15:18 14.38037 119.22736 27239 ft 476 kts 264°
2026-04-30 15:19 14.37259 119.12422 27889 ft 479 kts 265°
2026-04-30 17:39 13.78335 100.58196 31902 ft 478 kts 281°
2026-04-30 17:42 13.84048 100.24534 31889 ft 475 kts 280°
2026-04-30 17:43 13.86875 100.07740 31885 ft 472 kts 280°
2026-04-30 17:44 13.90235 99.87695 31867 ft 472 kts 279°
2026-04-30 17:47 13.95131 99.58279 31885 ft 470 kts 279°
2026-04-30 17:48 13.99010 99.34809 31911 ft 469 kts 279°
2026-04-30 17:50 14.03387 99.08140 31951 ft 467 kts 278°
2026-04-30 17:52 14.05764 98.88236 31964 ft 467 kts 273°
2026-04-30 17:54 14.07725 98.57805 31941 ft 468 kts 273°
2026-04-30 17:56 14.09435 98.30757 31898 ft 467 kts 273°
2026-04-30 17:58 14.11779 98.13910 31882 ft 470 kts 283°
2026-04-30 18:00 14.18265 97.88029 31866 ft 468 kts 283°
2026-04-30 18:01 14.22254 97.72039 31865 ft 470 kts 283°
2026-04-30 18:02 14.27134 97.52422 31866 ft 470 kts 282°
2026-04-30 18:04 14.31954 97.32963 31872 ft 469 kts 282°
2026-04-30 18:06 14.38453 97.06612 31866 ft 470 kts 282°
2026-04-30 18:08 14.44099 96.83614 31861 ft 470 kts 282°
2026-04-30 18:10 14.50563 96.57156 31844 ft 470 kts 282°
2026-04-30 18:11 14.56192 96.34003 31850 ft 470 kts 281°
2026-04-30 18:13 14.60163 96.17606 31852 ft 470 kts 281°
2026-04-30 18:14 14.64137 96.01148 31850 ft 469 kts 281°
2026-04-30 18:15 14.68917 95.81272 31854 ft 470 kts 281°
2026-04-30 18:16 14.72099 95.67999 31864 ft 469 kts 281°
2026-04-30 18:17 14.73680 95.61389 31861 ft 470 kts 281°
2026-04-30 18:18 14.76063 95.51420 31865 ft 469 kts 281°
2026-04-30 18:18 14.77643 95.44785 31863 ft 469 kts 281°
2026-04-30 18:19 14.79166 95.38393 31866 ft 468 kts 281°
2026-04-30 18:19 14.80729 95.31815 31863 ft 469 kts 281°
2026-04-30 18:20 14.82309 95.25166 31864 ft 468 kts 281°
2026-04-30 18:20 14.83834 95.18739 31865 ft 468 kts 281°
2026-04-30 18:21 14.85400 95.12128 31863 ft 468 kts 281°
2026-04-30 18:21 14.86801 95.06205 31865 ft 468 kts 281°
2026-04-30 18:22 14.88330 94.99734 31862 ft 468 kts 281°
2026-04-30 18:22 14.90666 94.89832 31857 ft 468 kts 281°
2026-04-30 18:23 14.92219 94.83231 31850 ft 467 kts 281°
2026-04-30 18:23 14.93738 94.76771 31848 ft 466 kts 281°
2026-04-30 18:24 14.96070 94.66840 31848 ft 465 kts 281°
2026-04-30 18:25 14.97590 94.60357 31847 ft 466 kts 281°
2026-04-30 18:25 14.99901 94.50474 31853 ft 465 kts 281°
2026-04-30 18:26 15.02131 94.40924 31852 ft 466 kts 281°
2026-04-30 18:27 15.04395 94.31211 31858 ft 465 kts 280°
2026-04-30 18:28 15.05669 94.25736 31856 ft 465 kts 280°